AO-07 1 07530U 74089B 18213.89297656 -.00000031 00000-0 83697-4 0 9992 2 07530 101.6904 180.5353 0011656 246.8057 138.3314 12.53633592 321 UO-11 1 14781U 84021B 18214.15092964 .00000039 00000-0 10923-4 0 9999 2 14781 97.6459 248.3982 0007091 297.0731 62.9759 14.83020639851250 LO-19 1 20442U 90005G 18214.78815828 -.00000012 00000-0 11624-4 0 9991 2 20442 98.6113 152.9978 0012185 18.3762 341.7859 14.32901107490566 HUBBLE 1 20580U 90037B 18213.94318949 .00000351 00000-0 10440-4 0 9998 2 20580 028.4684 172.6268 0002449 271.9192 146.9736 15.09071275352307 MET-2/21 1 22782U 93055A 18214.23235633 .00000007 00000-0 -70048-5 0 9998 2 22782 82.5466 57.3889 0022303 1.0947 117.1170 13.83811090258541 AO-27 1 22825U 93061C 18213.90978026 -.00000015 00000-0 11998-4 0 9993 2 22825 98.8661 190.8627 0007793 207.0366 153.0410 14.30035666296108 IO-26 1 22826U 93061D 18213.91601517 -.00000004 00000-0 16290-4 0 9991 2 22826 098.8600 190.9010 0008496 196.2487 163.8423 14.30367563296043 FO-29 1 24278U 96046B 18213.92724858 -.00000017 00000-0 19478-4 0 9990 2 24278 098.5160 046.3748 0350251 352.4303 007.1630 13.53084854084170 NOAA-15 1 25338U 98030A 18214.43521137 .00000023 00000-0 28301-4 0 9996 2 25338 98.7679 230.8954 0011696 93.1540 267.0978 14.25868930 51613 GO-32 1 25397U 98043D 18214.27701362 -.00000011 00000-0 14302-4 0 9991 2 25397 98.6513 153.9580 0000438 182.2775 177.8401 14.23649058 42284 ISS 1 25544U 98067A 18215.04765046 .00000923 00000-0 21442-4 0 9990 2 25544 51.6423 145.1552 0005337 20.5990 155.4799 15.53790552125807 NO-44 1 26931U 01043C 18214.70916540 -.00000022 00000-0 23460-4 0 9991 2 26931 67.0516 109.3693 0007872 267.7433 92.2766 14.30512375879204 SO-50 1 27607U 02058C 18214.70841834 -.00000051 00000-0 13700-4 0 9990 2 27607 64.5561 307.8311 0069970 318.3916 41.1874 14.75467763839821 CO-55 1 27844U 03031E 18214.81619030 .00000027 00000-0 32072-4 0 9993 2 27844 98.6864 222.7842 0008763 232.6520 127.3860 14.22125586782829 CO-57 1 27848U 03031J 18213.87362059 .00000016 00000-0 27101-4 0 9993 2 27848 098.6950 222.2686 0008533 247.6611 112.3663 14.21728259782529 RS-22 1 27939U 03042A 18214.84721749 .00000055 00000-0 18436-4 0 9993 2 27939 97.9969 352.7929 0013002 7.2017 96.1941 14.66703769793650 NOAA-18 1 28654U 05018A 18214.43672230 -.00000032 00000-0 75801-5 0 9994 2 28654 99.1416 250.8228 0014255 2.3553 357.7682 14.12381541680315 CO-58 1 28895U 05043F 18213.87740294 .00000090 00000-0 26043-4 0 9998 2 28895 97.9151 3.4971 0015429 286.2402 73.7103 14.63566655680557 Falconsat-3 1 30776U 07006E 18214.39509977 .00001713 00000-0 51265-4 0 9996 2 30776 35.4364 332.5460 0002101 86.2937 273.8029 15.34710451631420 CO-65 1 32785U 08021C 18214.71195213 .00000137 00000-0 20485-4 0 9995 2 32785 97.5466 224.6683 0011660 240.9962 119.0087 14.88152590556095 AAUSAT2 1 32788U 08021F 18214.02203364 .00000637 00000-0 64184-4 0 9998 2 32788 97.5195 238.6138 0011604 186.9736 173.1326 14.94404630557026 DO-64 1 32789U 08021G 18214.61761191 .00001033 00000-0 74562-4 0 9993 2 32789 97.5089 268.2453 0013791 134.6979 225.5374 15.06194587558775 CO-66 1 32791U 08021J 18213.85189234 .00000299 00000-0 35913-4 0 9993 2 32791 97.5349 229.3095 0012283 221.4004 138.6285 14.90595903556318 RS-30 1 32953U 08025A 18214.80074374 .00000034 00000-0 17583-3 0 9990 2 32953 82.5058 343.6859 0020131 108.4252 251.9019 12.43084677462561 PRISM 1 33493U 09002B 18214.77961129 .00000214 00000-0 24515-4 0 9999 2 33493 98.1289 118.6546 0015520 157.0946 203.0929 14.96283239517316 NOAA-19 1 33591U 09005A 18214.47348334 .00000057 00000-0 56211-4 0 9998 2 33591 99.1451 193.4274 0013632 192.8472 167.2353 14.12297308488701 TISAT-1 1 36799U 10035E 18214.36033697 .00000142 00000-0 20512-4 0 9997 2 36799 98.1127 351.8169 0013511 60.9424 299.3145 14.90844671437037 JUGNU 1 37839U 11058B 18213.90473336 .00000283 00000-0 94362-5 0 9997 2 37839 19.9613 120.0248 0018909 31.2718 32.2783 14.12624471351845 SRMSAT 1 37841U 11058D 18213.91239532 .00000299 00000-0 18859-4 0 9992 2 37841 019.9711 170.1253 0011682 272.6818 120.9981 14.10611050351259 AO-71 1 37854U 11061E 18214.20224573 .00000529 00000-0 35851-4 0 9999 2 37854 101.7015 302.7298 0163053 297.0225 61.4423 15.05569405368759 HRBE 1 37855U 11061F 18214.22690863 .00000341 00000-0 25866-4 0 9998 2 37855 101.7145 300.3078 0175953 306.0013 52.4996 15.04559250368573 ALMASAT-1 1 38078U 12006B 18214.76122208 .00026174 39263-5 22254-3 0 9995 2 38078 69.4315 87.6256 0228712 35.1511 4.0869 15.43354878347838 HORYU-2 1 38340U 12025D 18214.52483807 .00000104 00000-0 23324-4 0 9994 2 38340 98.3642 237.8306 0012823 66.6426 293.6129 14.75580987333945 RS-40 1 38735U 12041C 18214.16983614 .00000015 00000-0 40703-4 0 9992 2 38735 82.4735 67.9471 0016227 211.9732 148.0364 12.42577067272732 BEESAT-3 1 39134U 13015E 18214.34477534 .00000968 00000-0 55071-4 0 9998 2 39134 64.8648 337.5829 0006452 219.0398 141.0264 15.19290795291912 BEESAT-2 1 39136U 13015G 18213.90123313 .00000763 00000-0 49257-4 0 9996 2 39136 064.8701 355.8801 0017292 234.0071 125.9452 15.16238008291136 ZACUBE-1 1 39417U 13066B 18214.66471436 .00000104 00000-0 19549-4 0 9990 2 39417 97.5846 240.8150 0059160 4.5387 355.6351 14.80959505253670 TRITON-1 1 39427U 13066M 18213.91043667 .00000131 00000-0 28638-4 0 9998 2 39427 97.6435 206.8152 0115495 112.5651 248.7825 14.67692829251289 GOMX-1 1 39430U 13066Q 18214.79876468 .00000118 00000-0 30305-4 0 9991 2 39430 97.7009 188.3267 0151294 182.8591 177.1761 14.59103994249958 LO-74 1 39440U 13066AA 18214.11353303 .00000141 00000-0 26522-4 0 9998 2 39440 97.6004 226.6191 0081653 47.1852 313.6184 14.75698484252691 AO-73 1 39444U 13066AE 18214.02829619 .00000156 00000-0 25709-4 0 9992 2 39444 97.5853 241.7958 0058205 1.8620 358.2800 14.81747401252446 SPROUT 1 39770U 14029E 18214.75858029 .00000370 00000-0 47483-4 0 9992 2 39770 97.8786 315.4239 0010302 59.9904 300.2316 14.86914140227286 DUCHIFAT-1 1 40021U 14033M 18214.18392286 .00000377 00000-0 44593-4 0 9999 2 40021 97.9143 132.9846 0013902 32.3729 327.8338 14.90350160223804 NANOSATCBR1 1 40024U 14033Q 18214.24784334 .00000298 00000-0 37077-4 0 9999 2 40024 97.9074 131.1996 0013212 34.6784 325.5292 14.89607600223735 EO-79 1 40025U 14033R 18214.25515645 .00000216 00000-0 29152-4 0 9993 2 40025 97.9028 129.5563 0013476 38.8532 321.3651 14.88746281223646 DTUSAT-2 1 40030U 14033W 18214.23230870 .00000182 00000-0 25644-4 0 9995 2 40030 97.8974 128.1692 0012878 34.6242 325.5811 14.88352408223587 EO-80 1 40032U 14033Y 18214.22493862 .00000182 00000-0 25678-4 0 9995 2 40032 97.8980 128.1644 0012826 35.2817 324.9246 14.88290200223576 ANTELSAT 1 40034U 14033AA 18214.09574663 .00000123 00000-0 25731-4 0 9996 2 40034 97.8049 89.0388 0060123 51.0376 309.6168 14.73948920221454 VELOX-1 1 40057U 14034E 18214.83604803 .00000210 00000-0 37139-4 0 9996 2 40057 98.2084 326.7010 0011090 171.6114 188.5283 14.77460545220530 DAURIA DX 1 1 40071U 14037C 18214.82938299 .00000050 00000-0 13840-4 0 9998 2 40071 98.3824 348.2884 0008584 163.7994 196.3499 14.81176202219903 UKUBE-1 1 40074U 14037F 18214.61378577 .00000170 00000-0 27615-4 0 9993 2 40074 98.3933 354.2337 0004781 153.1733 206.9727 14.83833657220186 HODOYOSHI-1 1 40299U 14070B 18214.78912485 .00000402 00000-0 20046-4 0 9998 2 40299 97.3764 295.7376 0014715 87.1855 61.5135 15.22964473207578 CHUBUSAT-1 1 40300U 14070C 18214.72793233 .00000482 00000-0 24273-4 0 9997 2 40300 97.3604 291.4251 0021539 98.5928 59.2932 15.21641804207352 QSAT-EOS 1 40301U 14070D 18214.85529115 .00001242 00000-0 52256-4 0 9995 2 40301 97.3579 293.0379 0028199 88.2680 48.5850 15.24904844207532 FIREBIRD FU3 1 40377U 15003B 18213.82169333 .00001585 00000-0 67825-4 0 9991 2 40377 99.0827 124.6102 0131983 78.9567 282.6473 15.17375759193242 FIREBIRD FU4 1 40378U 15003C 18214.79941437 .00001734 00000-0 73704-4 0 9991 2 40378 99.0829 125.8415 0132189 75.6215 285.9645 15.17388790193390 GRIFEX 1 40379U 15003D 18214.79171312 .00001186 00000-0 55399-4 0 9990 2 40379 99.0849 121.7434 0139205 88.8800 272.8371 15.14452086193153 NO-84 1 40654U 15025D 18214.35687081 .00003014 00000-0 55119-4 0 03702 2 40654 054.9908 187.5965 0152650 226.0167 132.8137 15.41424977062962 NO-83 1 40655U 15025E 18214.31335937 .00008874 00000-0 94603-4 0 04294 2 40655 054.9742 125.3683 0098813 264.1219 094.8546 15.59055067063474 DEORBITSAIL 1 40719U 15032E 18214.53944276 .00000252 00000-0 43442-4 0 9998 2 40719 97.9396 107.2907 0014887 258.7264 101.2273 14.76478042165016 NUDT-PHONESAT 1 40900U 15049B 18214.80459275 .00001321 00000-0 61721-4 0 9996 2 40900 97.4409 222.5228 0012115 220.4306 139.6031 15.21500530159008 XW-2A 1 40903U 15049E 18214.81257953 .00001260 00000-0 32951-4 0 9994 2 40903 97.3808 250.1271 0012991 216.1864 143.8505 15.40665195160983 XW-2C 1 40906U 15049H 18214.80944225 .00000375 00000-0 23421-4 0 9999 2 40906 97.4605 217.4493 0013763 223.8577 136.1564 15.15254192158551 XW-2D 1 40907U 15049J 18214.82320683 .00000407 00000-0 25038-4 0 9990 2 40907 97.4579 217.1546 0013180 221.1181 138.9059 15.15410088158561 LILACSAT-2 1 40908U 15049K 18214.82059952 .00000230 00000-0 16441-4 0 9991 2 40908 97.4692 216.4500 0014803 224.2541 135.7507 15.13549989158426 XW-2F 1 40910U 15049M 18214.80059710 .00000660 00000-0 37094-4 0 9998 2 40910 97.4578 218.5323 0013961 216.2453 143.7835 15.16633385158526 XW-2B 1 40911U 15049N 18214.84245884 .00000416 00000-0 25522-4 0 9994 2 40911 97.4613 217.7285 0013086 221.6802 138.3435 15.15352757158460 DCBB 1 40912U 15049P 18214.78238426 .00000728 00000-0 38123-4 0 9999 2 40912 97.4498 221.4533 0014359 202.8625 158.3701 15.18862786158748 TW-1C 1 40926U 15051B 18214.90576652 .00006192 00000-0 11297-3 0 9990 2 40926 97.1792 257.0401 0011581 102.7652 22.3824 15.49726240160543 TW-1A 1 40928U 15051D 18214.82943838 .00002007 00000-0 54068-4 0 9992 2 40928 97.1822 247.8939 0012714 145.1948 300.1312 15.38921941159955 IO-86 1 40931U 15052B 18214.25881392 .00000578 00000-0 -86450-5 0 9993 2 40931 5.9998 181.6221 0013559 304.2049 55.6790 14.76579979153820 LQSat 1 40958U 15057A 18214.69614134 .00000039 00000-0 13846-4 0 9992 2 40958 97.9381 286.8098 0017992 183.5601 176.5483 14.73040709151699 AO-85 1 40967U 15058D 18214.14580902 .00000008 00000-0 19294-4 0 04071 2 40967 064.7755 051.7432 0210886 299.7024 058.3236 14.75750938060431 ATHENOXAT-1 1 41168U 15077C 18214.68708010 .00001392 00000-0 39062-4 0 9995 2 41168 14.9811 39.9444 0012176 326.6601 12.0496 15.12875045145426 ChubuSat-2 1 41338U 16012B 18213.83041806 .00000240 00000-0 11983-4 0 9996 2 41338 31.0044 23.6516 0013789 166.0718 194.0299 15.00003602134697 ChubuSat-3 1 41339U 16012C 18214.83653272 .00000201 00000-0 88829-5 0 9995 2 41339 31.0125 15.7855 0013398 183.3461 176.7085 15.00189450134831 Horyu-4 1 41340U 16012D 18214.73681826 .00000367 00000-0 21297-4 0 9990 2 41340 31.0065 10.7333 0014062 195.8819 164.1377 15.01022759134896 OUFTI-1 1 41458U 16025C 18214.71973325 .00001249 00000-0 68944-4 0 9990 2 41458 98.1328 280.0507 0169025 352.1141 7.7429 15.04824223124431 e-st@r-II 1 41459U 16025D 18214.80164204 .00000791 00000-0 45606-4 0 9990 2 41459 98.1331 279.9579 0170257 352.6082 7.2636 15.04537098124436 AAUSAT4 1 41460U 16025E 18214.73483407 .00001070 00000-0 59254-4 0 9998 2 41460 98.1257 280.4636 0161380 348.3540 11.3999 15.06030291124493 LO-87 1 41557U 16033B 18214.66997693 .00000830 00000-0 33300-4 0 9990 2 41557 97.4362 298.7882 0013946 0.9069 359.2193 15.27775634121256 NuSat2 1 41558U 16033C 18214.79236269 .00000833 00000-0 32893-4 0 9999 2 41558 97.4384 299.0513 0012961 359.3059 0.8160 15.28307770121269 Lapan A3 1 41603U 16040E 18214.77065391 .00000183 00000-0 11758-4 0 9997 2 41603 97.4074 275.4392 0015208 78.7422 54.9069 15.19588377117157 Swayam 1 41607U 16040J 18213.87126751 .00001038 00000-0 47900-4 0 9997 2 41607 097.4098 276.2181 0015476 080.1104 280.1879 15.22361854117057 Pratham 1 41783U 16059A 18213.96300793 .00000021 00000-0 13476-4 0 9994 2 41783 98.1141 274.7749 0032529 313.5132 46.3367 14.62934692 98651 AlSat 1N 1 41789U 16059G 18214.77023319 .00000068 00000-0 22157-4 0 9993 2 41789 98.1164 276.8871 0027153 302.7784 57.0801 14.64169459 98836 ScatSat 1 41790U 16059H 18214.24358218 -.00000004 00000-0 10202-4 0 9995 2 41790 98.2560 261.1887 0017275 313.4955 46.4803 14.50863364 97863 TY-1 1 41844U 16066D 18214.84871910 .00000851 00000-0 38719-4 0 9990 2 41844 97.4054 221.1965 0014084 229.0836 251.9715 15.23377800 95982 Pegasus-1 1 41846U 16066F 18213.64595789 .00000215 00000-0 42181-4 0 9998 2 41846 98.7513 243.0306 0369343 111.9859 252.1000 14.37371273 90432 CAS-2T 1 41847U 16066G 18214.66553606 .00000047 00000-0 16840-4 0 9990 2 41847 98.7471 244.5334 0367346 106.3736 257.8164 14.37909854 91005 TO-89 1 41932U 98067KU 18214.09539668 .00031269 00000-0 17319-3 0 9996 2 41932 51.6302 103.7248 0003047 47.4842 312.6416 15.79276993 88014 AOBA-V3LOX3 1 41935U 98067KX 18214.72867477 .00054478 00000-0 22863-3 0 9998 2 41935 51.6337 94.3821 0002165 60.2697 299.8522 15.84989108 88297 EO-88 1 42017U 17008BX 18214.23897180 .00001094 00000-0 47344-4 0 9994 2 42017 97.4450 279.0185 0005637 204.1044 155.9931 15.24571487 81087 HAVELSAT 1 42700U 98067LH 18214.79653238 .00026772 00000-0 19116-3 0 9997 2 42700 51.6340 115.9799 0004410 78.6869 281.4625 15.73567875 69353 SOMP2 1 42701U 98067LJ 18214.75319409 .00022573 00000-0 17036-3 0 9997 2 42701 51.6349 117.9519 0004460 75.0227 285.1264 15.72371913 69310 PHOENIX 1 42706U 98067LP 18214.76179019 .00017393 00000-0 14095-3 0 9990 2 42706 51.6350 118.7725 0001467 52.4690 307.6441 15.70876535 69227 X-CubeSat 1 42707U 98067LQ 18214.75780279 .00027685 00000-0 19110-3 0 9994 2 42707 51.6299 115.6340 0001443 67.3366 292.7786 15.74345481 69252 qbee 1 42708U 98067LR 18214.16124102 .00030621 00000-0 22065-3 0 9994 2 42708 51.6348 119.9893 0001608 65.4435 294.6731 15.73282377 69105 ZA-AeroSat 1 42713U 98067LU 18214.76744138 .00016791 00000-0 14450-3 0 9994 2 42713 51.6344 121.8000 0001894 21.4745 338.6331 15.69448391 68842 LINK 1 42714U 98067LV 18214.76690983 .00095509 00000-0 35116-3 0 9999 2 42714 51.6215 104.9698 0000740 140.7956 219.3102 15.87494945 69177 UPSat 1 42716U 98067LX 18214.79201872 .00047697 00000-0 25260-3 0 9993 2 42716 51.6307 109.8475 0002962 88.4627 271.6714 15.80060261 69138 SpaceCube 1 42717U 98067LY 18214.76267160 .00025145 00000-0 18307-3 0 9991 2 42717 51.6316 117.2170 0003253 79.5130 280.6235 15.73154679 68279 Hoopoe 1 42718U 98067LZ 18214.26046721 .00037895 00000-0 23487-3 0 9995 2 42718 51.6284 116.0992 0002971 76.6690 283.4641 15.76651275 68244 Challenger 1 42721U 98067MA 18214.64740549 .00479897 12315-3 57827-3 0 9992 2 42721 51.6202 96.5318 0005569 239.8251 120.2210 16.07623064 68233 NJUST-1 1 42722U 98067MB 18214.79406329 .00015762 00000-0 14166-3 0 9995 2 42722 51.6351 123.5070 0005628 56.1057 304.0475 15.68428506 67891 UNSW-EC0 1 42723U 98067MC 18214.74134323 .00041747 00000-0 24534-3 0 9995 2 42723 51.6380 113.3686 0004614 71.5479 288.6023 15.77800270 68009 DUTHsat 1 42724U 98067MD 18214.74628990 .00222423 31188-4 48337-3 0 9998 2 42724 51.6272 99.5997 0001920 188.4594 171.6383 15.97867361 68100 LO-90 1 42725U 98067ME 18214.75469786 .00021212 00000-0 16683-3 0 9993 2 42725 51.6353 120.2278 0004648 61.6761 298.4705 15.71431562 67830 nSIGHT1 1 42726U 98067MF 18214.76557334 .00005956 00000-0 72297-4 0 9993 2 42726 51.6384 132.4049 0005727 53.7613 306.3909 15.62184737 67680 SNUSAT 1B 1 42727U 98067MG 18214.76732130 .00021756 00000-0 17114-3 0 9995 2 42727 51.6327 120.2482 0005326 26.8559 333.2714 15.71405551 67806 QBITO 1 42728U 98067MH 18214.77729583 .00024423 00000-0 17488-3 0 9993 2 42728 51.6378 117.4299 0003012 72.4245 287.7082 15.73565399 67682 Aalto-2 1 42729U 98067MJ 18214.74761305 .00028031 00000-0 19690-3 0 9995 2 42729 51.6342 117.1533 0002901 73.4659 286.6659 15.73929134 67698 SUSat 1 42730U 98067MK 18214.72604441 .00023437 00000-0 17924-3 0 9995 2 42730 51.6344 119.2649 0003032 69.0160 291.1162 15.72036511 67650 i-INSPIRE II 1 42731U 98067ML 18214.77893780 .00048509 00000-0 27483-3 0 9995 2 42731 51.6353 112.0275 0003219 22.6329 337.4813 15.78558754 67804 PolyITAN-2-SAU 1 42732U 98067MM 18214.76957548 .00026357 00000-0 18395-3 0 9997 2 42732 51.6342 116.5152 0004406 18.7601 341.3560 15.74111042 67741 ExAlta-1 1 42734U 98067MP 18214.79892314 .00049460 00000-0 26701-3 0 9991 2 42734 51.6274 111.3398 0004833 53.0282 307.1161 15.79613127 67768 Aoxiang-1 1 42735U 98067MQ 18214.81295080 .00016925 00000-0 14948-3 0 9992 2 42735 51.6341 122.8543 0005953 53.2127 306.9415 15.68793245 69036 BeEagleSat 1 42736U 98067MR 18214.75812093 .00020593 00000-0 16804-3 0 9994 2 42736 51.6340 120.9705 0005655 55.2125 304.9404 15.70562174 67744 CAS-4B 1 42759U 17034B 18214.78847120 .00000093 00000-0 19284-4 0 9995 2 42759 43.0176 187.4271 0009127 30.7354 37.2189 15.09332927 62493 CAS-4A 1 42761U 17034D 18214.76746183 -.00000053 00000-0 10319-4 0 9990 2 42761 43.0177 187.2819 0009853 32.3624 33.5431 15.09407793 62489 UCLSat 1 42765U 17036A 18214.62786732 .00000817 00000-0 38871-4 0 9995 2 42765 97.3973 273.7223 0010059 274.3439 85.6647 15.21955180 61771 NIUSat 1 42766U 17036B 18214.72889573 .00000643 00000-0 32533-4 0 9990 2 42766 97.3974 272.9955 0014304 260.1486 99.8134 15.20478342 61607 LituanicaSAT 2 1 42768U 17036D 18214.63295421 .00001332 00000-0 62115-4 0 9990 2 42768 97.3991 273.3069 0013933 262.5011 97.4642 15.21537546 61629 Aalto 1 1 42775U 17036L 18214.15705852 .00000478 00000-0 24765-4 0 9998 2 42775 97.3966 272.6664 0012528 262.6638 97.3174 15.20818235 61486 URSA MAIOR 1 42776U 17036M 18214.14116492 .00000542 00000-0 27616-4 0 9994 2 42776 97.3973 272.7116 0012352 263.0252 96.9578 15.20903398 61488 Max Valier Sat 1 42778U 17036P 18213.76123646 .00000576 00000-0 28734-4 0 9991 2 42778 97.3999 272.7113 0010855 269.7903 90.2089 15.21395135 61431 Pegasus 1 42784U 17036V 18214.73693031 .00000746 00000-0 35945-4 0 9997 2 42784 97.3976 273.7438 0010600 273.9612 86.0413 15.21760411 61590 NUDATSat 1 42787U 17036Y 18214.70268632 .00001119 00000-0 51457-4 0 9993 2 42787 97.3985 273.9578 0010120 273.2207 86.7871 15.22378927 61447 SUCHAI 1 1 42788U 17036Z 18214.09402370 .00000862 00000-0 40724-4 0 9994 2 42788 97.3978 273.2299 0010204 276.2559 83.7515 15.22044257 61571 SKCUBE 1 42789U 17036AA 18213.89745433 .00000810 00000-0 38480-4 0 9991 2 42789 097.3976 273.0271 0010048 277.0906 082.9188 15.21999347061462 VZLUSAT 1 1 42790U 17036AB 18213.70547678 .00001042 00000-0 48114-4 0 9997 2 42790 097.3982 272.9835 0009669 277.8489 082.1650 15.22393888061449 VENTA 1 1 42791U 17036AC 18213.74604537 .00000690 00000-0 33203-4 0 9991 2 42791 097.3976 272.9207 0009690 278.5167 081.4971 15.22044318061439 Robusta 1B 1 42792U 17036AD 18214.58490918 .00000890 00000-0 41807-4 0 9992 2 42792 97.3975 273.7751 0009622 275.4680 84.5458 15.22148472 61589 D-SAT 1 42794U 17036AF 18214.68948155 .00000334 00000-0 34329-4 0 9990 2 42794 97.5876 267.5812 0128330 127.1271 234.1754 14.90899641 60653 BIRD-J 1 42820U 98067MU 18214.79165233 .00018887 00000-0 16075-3 0 9992 2 42820 51.6341 123.4562 0002198 7.9720 352.1312 15.69619201 61178 BIRD-G 1 42821U 98067MV 18214.79729318 .00018003 00000-0 15754-3 0 9996 2 42821 51.6343 124.2480 0002289 9.6039 350.5001 15.68979571 61144 BIRD-M 1 42822U 98067MW 18213.94274857 .00017073 00000-0 14800-3 0 9993 2 42822 051.6345 128.2950 0002284 011.6800 348.4249 15.69255521061038 BIRD-B 1 42823U 98067MX 18214.12665296 .00018075 00000-0 15548-3 0 9999 2 42823 51.6351 127.2937 0004637 19.1098 341.0072 15.69390111 61045 BIRD-N 1 42824U 98067MY 18214.15741257 .00017893 00000-0 15551-3 0 9996 2 42824 51.6357 127.5182 0004575 19.1727 340.9441 15.69146021 61033 TechnoSat 1 42829U 17042E 18214.80973069 .00000200 00000-0 25761-4 0 9994 2 42829 97.5919 115.3970 0015464 48.6161 311.6384 14.90842795 57275 TOMSK-TPU 120 1 42910U 98067MZ 18214.74902080 .00013304 00000-0 13506-3 0 9991 2 42910 51.6342 129.9275 0005955 35.1240 325.0147 15.65550975 54675 TANYUSHA 1 1 42911U 98067NA 18214.76309508 .00015940 00000-0 15307-3 0 9999 2 42911 51.6348 128.5595 0005452 32.2098 327.9230 15.66774260 54673 TANYUSHA 2 1 42912U 98067NB 18214.78375197 .00014389 00000-0 14243-3 0 9993 2 42912 51.6370 129.4324 0005199 43.6852 316.4555 15.66112562 54686 SFERA 2 1 42913U 98067NC 18213.88517290 .00039707 00000-0 24991-3 0 9998 2 42913 051.6345 123.3286 0003920 067.3152 292.8262 15.76275570054687 TNS 0-2 1 42914U 98067ND 18214.73627391 .00012835 00000-0 13154-3 0 9990 2 42914 51.6356 130.6406 0005140 37.1635 322.9715 15.65353404 54658 QIKCOM-1 1 42983U 98067NF 18214.82282777 .00002223 00000-0 37591-4 0 9993 2 42983 51.6398 143.2899 0004442 20.7499 339.3672 15.56521799 43483 AO-91 1 43017U 17073E 18214.04376329 .00000308 00000-0 29257-4 0 9993 2 43017 97.7072 143.2671 0260858 122.1737 240.5065 14.78118302 37888 EcAMSat 1 43019U 98067NG 18214.80724921 .00003651 00000-0 55378-4 0 9993 2 43019 51.6396 142.4406 0004889 356.2954 3.8001 15.57484833125810 PICSAT 1 43132U 18004X 18213.71561800 .00000724 00000-0 34099-4 0 9991 2 43132 97.5307 276.5124 0008524 304.8953 55.1481 15.22745609 30642 AO-92 1 43137U 18004AC 18213.89946507 .00000652 00000-0 30984-4 0 9995 2 43137 097.5303 276.7203 0008076 306.6204 053.4289 15.22799852030673 TianYi 2 1 43155U 18008A 18214.86115560 .00000494 00000-0 33688-4 0 9992 2 43155 97.5229 288.5425 0017554 350.3576 101.2659 15.10630176 29532 Zhou Enlai 1 43156U 18008B 18214.80638947 .00000655 00000-0 44037-4 0 9995 2 43156 97.5276 288.4423 0014531 348.1623 140.5288 15.10095659 29515 TianYi 6 1 43158U 18008D 18214.71568711 .00000177 00000-0 14873-4 0 9992 2 43158 97.5205 288.1684 0014044 345.2850 171.2328 15.09787988 29476 S-Net G 1 43186U 18014G 18214.69381973 .00000653 00000-0 62612-4 0 9993 2 43186 97.7216 122.5655 0011103 5.3985 354.7354 14.96478052 27273 S-Net H 1 43187U 18014H 18214.69371544 .00000652 00000-0 62527-4 0 9991 2 43187 97.7214 122.5614 0011097 5.3686 354.7653 14.96478883 27271 S-Net J 1 43188U 18014J 18214.69361344 .00000650 00000-0 62277-4 0 9999 2 43188 97.7216 122.5672 0011084 5.4723 354.6618 14.96479615 27271 S-Net K 1 43189U 18014K 18214.69375179 .00000651 00000-0 62362-4 0 9997 2 43189 97.7213 122.5605 0011091 5.3446 354.7892 14.96478485 25822 FMN 1 1 43192U 18015A 18214.42647279 .00001084 00000-0 49004-4 0 9995 2 43192 97.3619 342.3814 0016702 346.1051 13.9726 15.22962875 27551 Shaonian Xing 1 43199U 18015H 18214.31693409 .00000828 00000-0 37208-4 0 9994 2 43199 97.3399 341.9953 0017769 359.4334 0.6881 15.23801423 27565 1KUNS-PF 1 43466U 98067NP 18214.79756832 .00008474 00000-0 12399-3 0 9996 2 43466 51.6391 145.3672 0000688 65.8937 294.2127 15.56498690 12955 UBAKUSAT 1 43467U 98067NQ 18214.80304650 .00006305 00000-0 95032-4 0 9993 2 43467 51.6396 145.4060 0002029 322.0648 38.0200 15.56209988 12968 Irazu 1 43468U 98067NR 18214.85303231 .00009531 00000-0 13714-3 0 9993 2 43468 51.6393 144.9877 0000701 78.8456 281.2614 15.56788735112957 OBJECT NU 1 43546U 98067NU 18214.23551043 .00009764 00000-0 15074-3 0 9997 2 43546 51.6405 149.1045 0006089 17.5629 342.5562 15.54812139 2998 OBJECT NV 1 43547U 98067NV 18213.33568139 .00008595 00000-0 13369-3 0 9998 2 43547 51.6430 153.5858 0006448 15.3214 344.8060 15.54787085 2532 OBJECT NW 1 43548U 98067NW 18214.42942592 .00006086 00000-0 97287-4 0 9994 2 43548 51.6426 148.1451 0006528 29.7798 330.3565 15.54642955 3157 OBJECT NX 1 43549U 98067NX 18213.85078698 .00006081 00000-0 97194-4 0 9990 2 43549 51.6439 151.0326 0006354 28.1241 332.0118 15.54651061 2621 OBJECT NY 1 43550U 98067NY 18214.23513379 .00008394 00000-0 13052-3 0 9994 2 43550 51.6413 149.0983 0006261 43.6219 316.5272 15.54833692 3143 EnduroSat One 1 43551U 98067NZ 18214.81184513 .00006893 00000-0 10802-3 0 9995 2 43551 51.6415 146.1993 0007323 38.3208 321.8313 15.54946890 3188 EQUISat 1 43552U 98067PA 18214.23334504 .00005853 00000-0 92887-4 0 9998 2 43552 51.6429 149.0855 0007548 35.5682 324.5814 15.54925222 3066 OBJECT PB 1 43553U 98067PB 18213.97627368 .00004766 00000-0 77035-4 0 9992 2 43553 051.6412 150.3637 0007585 034.8446 325.3024 15.54902845003072 OBJECT PC 1 43554U 98067PC 18213.84736620 .00006861 00000-0 10746-3 0 9994 2 43554 51.6419 151.0092 0007737 34.1383 326.0106 15.54970798 2570 /EX